Theta_e
350 348 346 341 336 333 332 331 329 328 327 326 327 332 338 340 340 339 338 337 338 340 339 339 339 339 340 341 340 339 339 337 330 326 324 323 320 318 319 326 337 340 340 339 340 340 339 339 339 340 340 339 337 336 336 334 333 335 336 336 335 336 337 337 337 336 335 335 336 336 335 334 333 332 330 330 330 331 329 330 331 331 331 330 329
350 348 346 341 336 333 333 332 329 329 327 326 325 327 333 339 342 340 340 340 340 340 339 338 338 339 340 339 339 338 338 334 329 328 327 326 323 320 319 324 333 339 340 338 338 338 339 339 338 339 339 339 338 337 335 334 334 334 335 335 335 335 337 338 338 338 336 335 333 333 332 333 332 330 330 330 330 330 329 329 330 330 330 328 326
350 348 347 342 336 333 333 332 330 330 328 326 325 324 327 334 340 341 340 339 339 338 337 337 337 338 338 337 337 337 336 334 331 332 331 329 328 326 323 328 334 338 339 338 337 337 338 339 338 338 339 339 338 337 334 333 332 333 333 334 335 335 336 338 338 337 337 335 334 332 331 332 332 330 330 330 329 328 328 329 329 328 328 327 325
349 349 347 342 337 334 333 332 331 329 328 327 325 324 322 327 334 336 336 335 334 334 334 334 334 334 334 335 335 336 335 335 336 336 336 334 333 331 328 331 337 339 338 338 337 336 337 338 338 338 338 339 337 336 334 332 332 331 331 332 334 334 335 336 337 336 335 335 333 333 333 332 332 331 332 331 330 330 329 329 328 329 330 328 327
348 349 346 344 338 334 333 333 331 330 328 327 325 324 321 322 327 330 331 331 332 331 331 330 331 332 333 334 335 336 337 338 339 339 339 338 336 333 332 333 336 337 337 337 337 336 337 337 337 337 337 337 338 336 332 331 332 331 330 332 333 333 334 335 335 334 334 333 332 334 334 333 332 333 333 332 331 331 332 330 329 330 331 330 327
349 348 347 344 340 335 333 333 332 331 328 326 325 325 323 322 323 327 330 331 331 332 333 333 333 334 336 337 337 339 339 340 339 340 340 339 339 337 336 335 335 333 334 336 336 336 336 335 336 336 337 337 338 335 330 331 332 331 330 331 332 332 333 334 333 332 332 331 332 334 333 333 332 332 333 332 330 331 331 330 330 330 331 330 328
349 347 346 344 343 338 333 334 332 331 329 326 326 326 325 325 323 324 330 333 333 334 334 335 335 336 337 338 339 339 340 339 339 340 339 339 341 341 340 339 337 334 333 334 335 336 336 335 336 336 337 336 337 334 331 332 332 332 331 331 331 331 332 332 332 331 331 332 333 334 334 334 333 333 332 331 331 330 330 330 330 329 330 330 329
349 348 346 344 344 340 334 333 333 332 330 327 326 326 326 327 326 326 328 330 332 333 333 333 334 335 336 338 339 339 339 339 339 339 339 340 341 341 342 341 339 337 335 333 332 334 336 336 335 336 335 335 334 332 332 333 333 333 331 330 329 330 330 329 329 329 331 333 333 333 334 334 335 334 331 331 331 330 330 330 329 329 329 330 329
349 348 346 345 345 341 335 334 333 333 332 329 327 327 327 328 327 327 327 327 328 329 329 331 332 333 335 337 338 338 338 338 338 339 339 340 341 341 341 341 341 338 335 333 331 334 337 336 336 335 334 334 332 330 332 333 332 332 331 329 328 327 327 327 327 329 332 333 333 334 334 334 334 334 332 331 331 330 330 330 329 329 330 329 329
348 348 346 345 345 342 337 334 334 334 333 331 330 328 327 328 329 329 328 327 327 327 328 330 330 331 332 334 336 337 337 337 337 338 338 339 341 341 341 341 340 338 336 334 332 332 336 336 336 335 334 335 332 331 332 332 331 331 331 331 329 327 326 326 327 330 332 333 333 334 334 334 334 333 332 330 329 329 329 330 329 328 330 330 329
347 346 346 344 345 344 339 335 334 334 335 334 332 330 329 329 330 330 330 328 327 328 328 329 328 329 330 332 334 335 335 335 337 338 339 339 340 340 341 340 339 337 335 334 332 332 335 337 336 336 336 336 334 333 332 331 331 332 333 332 331 329 327 325 328 332 332 333 334 334 333 333 334 332 330 330 329 329 329 329 328 327 328 328 329
347 346 345 345 345 345 341 336 335 335 335 336 335 333 333 332 332 332 332 330 329 328 329 330 330 330 330 331 331 331 331 333 336 338 338 339 339 340 340 339 338 337 335 334 333 333 335 336 336 336 336 335 334 334 332 331 332 332 331 332 332 331 329 326 330 333 332 332 333 334 333 333 333 331 330 331 330 330 330 331 329 328 329 328 329
346 345 345 345 345 346 343 339 336 335 336 337 336 335 336 334 333 333 333 332 331 331 331 331 330 328 327 326 325 326 328 331 335 336 336 338 339 338 338 338 337 337 335 333 332 332 334 334 334 334 333 333 332 332 332 331 331 332 330 331 332 332 331 328 330 332 332 333 333 333 333 333 333 331 330 331 330 331 330 331 330 330 330 328 328
346 346 345 345 345 346 344 340 336 334 337 337 336 336 337 335 334 334 333 332 332 332 331 329 327 326 324 323 324 325 327 330 333 334 335 336 336 336 336 337 338 337 335 332 331 332 333 333 333 332 332 331 332 331 331 331 330 331 330 331 332 332 331 329 329 331 333 333 333 333 333 333 332 331 331 331 331 330 330 329 329 331 330 328 328
347 346 346 345 346 347 345 341 336 335 337 337 338 338 337 335 334 334 333 332 331 332 330 327 325 325 325 325 325 327 328 329 331 333 334 335 335 334 335 337 337 337 335 332 329 330 332 332 333 332 330 330 330 330 330 329 330 330 332 332 332 331 331 330 330 331 332 333 333 332 333 332 331 331 332 331 330 330 330 330 329 329 328 327 327
347 346 346 346 347 347 346 342 339 336 335 338 339 338 336 335 334 334 334 332 331 331 328 326 325 326 328 327 327 328 328 328 330 332 333 334 334 335 335 336 336 336 334 331 327 328 331 331 331 332 332 330 327 327 327 328 329 331 333 333 332 331 330 331 330 330 332 332 332 332 332 332 330 331 331 330 330 330 330 330 329 328 328 327 327
347 346 345 344 346 346 345 343 339 336 336 340 340 336 336 335 334 334 334 332 331 331 328 325 326 328 329 328 328 329 327 327 329 330 332 333 333 334 335 335 334 333 332 327 324 326 328 328 328 329 330 330 328 326 326 327 329 332 332 332 331 331 330 330 330 330 332 332 332 332 332 332 331 331 331 331 330 330 330 329 329 327 327 328 328
345 343 343 344 345 343 342 343 341 339 337 339 338 336 336 335 334 334 334 332 330 331 327 325 328 329 329 329 329 329 327 326 327 327 329 330 331 332 332 332 331 331 330 324 321 324 326 326 326 327 327 328 329 327 325 327 330 331 332 331 331 331 331 331 330 329 331 332 331 332 331 331 331 331 331 331 331 330 329 329 328 327 327 328 328
343 343 344 344 344 342 341 343 341 341 338 336 337 337 337 335 334 334 334 332 331 330 326 325 329 330 330 330 330 330 328 327 326 326 327 327 329 330 330 330 330 329 328 323 320 324 327 327 326 326 327 327 329 327 325 327 331 332 331 331 331 331 330 331 331 330 330 331 332 332 330 330 331 332 331 331 330 330 329 329 329 328 327 328 327
342 343 343 343 343 342 343 342 340 341 339 334 336 336 336 337 334 333 334 332 331 330 325 326 330 330 330 330 331 331 330 328 327 326 326 326 327 328 328 329 329 327 327 325 321 324 327 327 327 326 326 327 327 326 325 328 331 332 332 331 331 331 330 331 331 330 331 331 330 331 329 330 332 332 331 331 330 330 329 329 330 329 328 328 327
341 343 342 342 342 342 343 342 338 339 338 334 338 337 336 338 334 333 334 331 331 330 325 326 330 330 331 331 331 332 332 331 329 329 327 327 327 326 327 328 328 328 328 327 324 324 326 327 327 326 326 327 327 326 325 328 332 332 332 332 331 332 331 331 331 330 331 330 330 330 328 328 332 332 331 331 330 330 329 329 330 329 328 327 326
340 341 342 341 342 342 341 340 337 339 338 336 338 336 336 337 335 334 334 332 332 331 326 327 331 331 332 332 332 332 332 332 331 331 328 327 328 327 327 327 327 328 328 328 327 326 326 327 327 327 326 327 327 327 327 329 331 331 332 332 332 332 331 330 331 331 331 331 331 330 327 328 331 332 331 330 329 329 329 329 330 329 328 326 325
338 339 339 340 342 341 338 338 338 339 338 337 338 336 336 336 335 336 335 333 334 332 330 330 331 331 333 333 333 333 333 333 332 332 329 328 329 329 329 327 327 327 328 328 327 327 326 327 326 326 326 327 327 327 327 330 331 331 331 331 332 332 331 331 331 331 331 330 331 329 327 328 330 332 331 330 329 328 328 328 329 329 330 328 326
337 335 337 339 340 337 335 336 338 338 338 337 337 337 337 337 338 339 337 335 336 335 332 330 329 330 332 333 334 334 335 334 334 334 331 330 330 331 330 329 328 328 328 327 328 328 328 329 327 326 326 327 328 328 328 329 331 331 331 331 331 331 330 331 330 331 331 330 329 328 327 328 331 332 331 330 329 328 327 328 329 329 330 328 327
333 332 335 337 338 336 335 336 335 336 336 334 335 337 337 336 337 340 338 336 337 335 332 330 329 330 332 332 334 336 337 336 335 335 334 332 331 332 332 331 330 329 329 328 328 328 329 330 329 327 327 327 328 328 329 329 330 331 331 331 330 330 330 329 330 330 330 329 328 327 327 328 331 331 331 330 329 329 328 327 329 329 329 327 327
329 329 333 335 336 335 335 336 335 337 336 333 335 337 338 336 336 337 338 337 336 335 333 330 329 330 331 332 334 335 336 337 337 336 335 335 333 332 333 332 332 330 329 329 328 327 328 328 328 328 328 327 327 327 327 328 328 329 331 332 331 330 329 328 329 330 329 329 328 326 326 328 330 331 331 331 329 329 328 327 328 328 328 327 327
329 332 333 333 334 333 333 335 336 337 336 336 336 336 337 337 336 337 338 336 334 334 333 331 330 330 331 332 333 334 335 335 336 336 336 336 335 334 333 333 333 331 330 329 327 326 328 328 328 328 328 327 327 327 327 327 328 329 331 333 331 329 329 329 329 330 329 329 328 325 326 327 329 331 331 331 330 330 329 328 327 327 327 326 326
330 334 333 330 331 332 333 334 334 334 333 335 337 337 337 337 337 338 337 334 332 333 332 331 331 331 331 332 332 333 335 334 333 333 335 335 336 335 335 334 332 330 328 328 327 325 327 328 328 328 328 328 328 328 328 327 327 328 332 333 331 330 329 330 329 330 329 329 329 326 325 327 328 331 331 330 330 330 329 329 328 328 327 325 326
331 334 332 328 329 329 331 333 332 330 330 333 335 337 338 336 337 338 336 335 333 332 331 332 332 332 332 333 334 333 334 333 333 334 334 335 336 335 334 335 334 331 328 327 327 327 327 328 328 328 329 329 329 329 328 327 327 329 332 332 332 332 331 331 330 330 330 329 330 328 326 327 328 330 331 330 330 329 329 329 329 328 328 326 325
330 332 331 327 327 327 328 331 331 331 331 332 333 336 337 336 337 336 334 335 335 332 332 332 332 332 332 333 334 333 334 335 335 335 334 335 336 334 334 334 334 331 330 328 328 328 329 327 328 329 330 331 330 329 328 327 328 329 331 332 332 332 332 333 332 331 331 331 331 329 327 327 328 329 330 330 330 330 330 328 329 329 328 327 325
329 332 330 325 325 327 327 328 331 332 333 334 333 335 337 336 336 336 334 335 335 332 332 332 332 332 331 332 332 332 334 336 336 336 336 336 335 334 333 334 332 330 329 329 328 329 330 328 328 330 331 332 330 329 328 328 328 329 330 331 331 330 330 332 332 332 331 330 331 330 329 328 328 329 329 330 329 330 330 327 327 328 327 327 327
331 333 330 326 326 328 326 327 330 332 333 335 334 335 337 337 336 336 335 335 334 333 333 333 334 334 333 333 333 333 333 335 336 336 335 335 334 333 333 333 332 331 330 329 328 330 331 329 329 330 331 331 330 328 328 328 327 328 329 330 330 329 330 332 332 331 330 329 329 328 329 328 328 329 329 330 328 328 330 329 329 329 328 328 328
333 334 330 327 328 329 328 329 331 331 332 333 333 335 336 336 337 336 336 336 336 336 336 336 336 337 337 336 335 334 335 336 336 335 334 335 334 333 333 332 332 332 332 330 329 331 332 331 330 331 331 331 330 329 328 328 327 327 328 329 329 330 332 332 332 331 331 330 327 325 327 327 328 329 329 329 328 327 330 330 330 331 330 329 328
333 333 333 329 328 331 331 331 331 330 330 331 332 333 334 336 337 337 337 337 338 338 337 337 337 337 337 336 335 335 336 336 335 334 334 335 335 334 333 332 331 332 332 330 330 331 332 333 332 331 330 330 331 330 328 328 328 327 327 328 328 329 330 331 331 331 331 331 328 327 327 325 326 327 328 328 328 327 328 329 330 331 332 331 330
333 334 334 331 330 332 332 332 331 330 329 330 332 335 337 338 338 338 338 339 337 336 335 334 334 334 333 333 333 334 335 334 334 334 334 335 335 334 333 332 332 332 331 330 330 330 331 333 333 331 331 331 330 330 328 327 328 328 327 328 328 328 329 330 330 330 331 331 330 330 328 325 326 325 325 327 328 328 328 329 330 330 330 331 331
334 334 334 333 333 334 332 332 332 330 331 332 334 338 340 340 339 339 339 338 335 333 332 332 332 332 332 332 332 334 334 334 334 335 335 335 334 333 332 333 334 333 332 330 330 330 331 332 332 331 330 331 331 330 329 328 328 328 328 328 328 328 329 328 328 328 329 329 330 330 329 328 327 326 325 326 328 329 327 327 328 328 329 329 330
334 334 334 334 335 334 334 334 333 332 332 334 337 340 340 339 338 337 336 334 332 331 332 333 333 333 332 332 333 334 334 333 334 335 336 335 333 333 332 333 334 333 332 331 331 332 333 332 331 330 330 330 331 330 329 329 328 328 328 328 328 328 328 328 327 327 326 326 327 328 328 329 328 327 327 327 328 329 328 327 327 327 327 327 328
334 334 334 335 335 333 332 333 334 334 335 337 339 340 339 337 335 334 333 332 332 331 331 332 332 332 332 331 332 334 334 334 334 334 335 334 333 333 332 333 334 333 333 333 333 333 333 332 329 328 329 330 330 330 329 329 328 328 328 327 327 327 327 326 326 325 325 324 324 325 326 327 326 326 327 327 328 329 329 329 329 329 328 327 328
335 335 335 335 335 334 331 331 334 336 338 339 339 339 337 335 333 332 332 332 331 330 329 330 330 330 330 330 332 334 333 333 334 333 333 333 333 333 331 332 332 332 333 332 332 332 331 332 328 326 328 329 329 330 329 328 328 328 328 327 327 327 327 325 324 324 323 322 322 323 324 324 324 324 324 326 327 327 327 328 329 330 329 328 327
335 336 335 334 335 333 330 331 336 338 338 338 338 337 336 334 332 332 332 332 329 327 328 330 329 330 330 330 332 333 332 333 333 333 333 334 333 332 331 330 330 331 332 331 330 330 330 331 328 325 326 328 329 329 328 328 328 329 328 328 328 329 328 327 325 323 322 321 320 320 321 322 323 324 325 325 326 326 327 328 328 328 329 328 328
335 336 335 335 334 330 328 333 337 336 336 337 336 335 334 332 332 332 332 330 326 326 328 330 330 330 330 330 330 330 330 331 332 332 332 333 333 332 331 331 331 331 332 331 329 329 330 330 328 326 327 329 328 328 327 328 328 328 329 328 328 328 328 328 326 323 320 320 320 321 321 322 324 326 327 327 326 326 327 327 327 327 328 328 328
334 334 334 333 332 330 331 336 338 336 335 335 333 333 332 331 332 332 331 328 325 325 328 330 330 330 330 330 330 329 329 330 331 330 330 332 331 331 331 331 331 331 330 330 329 329 329 328 327 327 328 328 328 328 327 328 328 329 330 329 328 328 328 328 326 322 319 319 320 321 321 321 323 325 327 326 325 325 324 325 327 328 327 326 326
333 333 334 332 330 333 336 337 337 335 335 334 332 331 331 331 331 330 330 327 324 326 328 329 329 329 329 329 329 329 330 330 331 330 329 330 329 330 330 330 330 330 330 329 329 329 328 327 327 326 327 327 327 327 327 327 328 328 330 330 329 328 328 328 326 321 319 319 320 320 320 320 321 322 324 324 323 322 322 323 325 327 328 327 326
333 333 334 333 332 336 338 337 336 334 334 333 331 331 332 333 331 329 328 325 323 325 328 328 328 328 327 327 327 327 328 329 330 329 328 328 327 328 329 329 329 329 330 330 330 329 329 329 327 326 327 327 327 326 326 326 327 328 329 328 328 328 327 328 327 322 318 319 319 318 318 319 319 320 320 321 322 322 322 324 325 326 328 327 327
333 333 334 333 334 336 338 337 334 333 333 332 330 331 333 332 330 329 327 324 324 324 325 325 325 325 324 324 323 323 323 324 325 326 325 324 323 324 325 325 326 328 329 329 329 329 329 329 328 328 328 328 327 326 326 326 327 327 328 328 328 328 327 327 327 323 319 318 317 315 315 316 316 318 318 319 321 321 323 325 325 326 327 327 327
333 332 331 331 331 331 335 337 332 331 332 331 331 331 332 330 329 327 325 324 324 323 322 321 321 321 321 321 320 319 319 319 321 323 322 321 321 321 321 322 323 326 328 328 328 328 328 328 328 328 328 329 328 327 326 326 326 326 326 326 326 327 328 327 326 324 321 319 317 315 314 314 315 315 316 316 318 320 321 322 323 324 324 325 326
328 326 327 328 329 330 332 333 332 331 331 331 331 330 330 329 328 325 323 323 323 320 320 320 320 320 320 319 318 318 318 319 321 323 322 322 322 322 323 323 323 325 327 327 327 327 327 327 327 328 328 328 328 328 327 325 326 326 326 326 325 324 325 326 326 324 322 319 315 314 313 312 312 313 312 313 314 317 317 317 318 320 321 321 322
324 325 326 327 329 331 331 329 330 330 329 329 329 328 328 328 326 324 322 321 321 320 319 320 320 319 319 318 318 318 318 319 320 322 323 322 321 321 323 324 323 323 325 326 327 327 327 327 327 327 327 327 328 327 326 326 326 326 326 326 326 325 324 325 326 325 321 316 314 314 312 310 310 310 311 311 311 312 313 313 313 314 315 316 317
326 326 327 328 328 328 327 325 325 326 327 327 327 327 327 326 325 323 322 321 320 319 319 319 319 319 318 318 318 318 318 318 319 322 324 322 318 318 321 323 323 323 324 324 325 326 326 327 327 327 326 327 328 327 327 326 326 326 326 326 326 325 323 322 322 321 318 314 313 315 314 312 311 310 310 310 309 309 310 310 310 311 312 311 312
326 325 326 327 326 324 323 322 322 323 325 326 326 326 326 325 324 323 321 320 319 319 319 318 318 318 318 318 318 318 318 318 318 320 321 320 318 319 321 323 323 323 324 324 324 325 326 327 327 327 327 327 327 327 326 326 326 326 325 324 323 322 320 318 316 314 313 313 314 315 316 315 312 311 311 309 308 308 308 308 308 309 309 309 310
327 326 324 324 323 321 321 321 321 322 324 325 325 325 325 324 324 323 321 319 318 317 317 318 318 317 317 317 317 317 317 317 318 318 319 318 318 319 320 322 322 322 322 323 323 324 324 325 326 327 327 327 327 327 326 325 326 324 321 320 320 318 317 316 313 311 311 312 314 315 315 314 312 310 310 310 308 307 307 307 307 307 308 308 308
Wind_Speed
26 27 26 29 28 28 26 25 25 24 25 25 26 27 28 28 28 29 30 31 31 30 28 27 25 25 23 22 22 22 21 20 20 19 18 17 17 17 17 19 21 21 20 18 17 17 17 17 16 15 14 14 13 13 14 15 16 16 17 15 15 15 14 15 15 15 15 15 14 15 15 15 14 14 15 15 14 14 16 17 16 16 17 16 16
29 28 28 29 28 28 26 25 25 25 25 26 27 27 28 28 28 29 30 30 29 28 26 26 25 24 23 22 22 21 20 20 20 19 18 17 17 17 17 18 21 21 20 18 17 17 17 16 15 15 14 14 13 13 14 15 15 15 16 15 16 15 14 14 14 14 15 15 14 14 14 14 13 13 14 14 13 14 16 16 15 15 16 16 15
29 27 28 29 29 28 26 25 25 26 26 26 27 27 28 29 29 29 29 29 28 27 26 26 24 23 22 22 21 20 19 19 18 17 17 17 17 16 17 18 19 20 20 19 18 17 16 16 15 15 15 14 14 13 13 14 15 14 14 15 16 15 14 15 14 14 13 14 14 14 13 13 13 13 14 13 14 15 15 15 15 15 15 15 16
28 27 28 29 29 28 26 25 25 26 26 26 26 27 28 28 30 29 29 28 28 27 26 25 23 23 22 21 20 19 18 17 16 16 16 16 16 17 18 19 19 20 19 19 18 17 17 16 16 15 15 14 14 13 13 13 14 13 14 16 16 15 15 14 13 14 13 13 14 14 13 14 14 14 13 14 14 15 15 15 15 15 14 15 16
28 27 28 29 28 28 26 26 26 26 27 27 27 28 28 28 29 29 29 28 27 26 25 25 24 23 22 21 20 19 18 17 16 16 15 15 16 18 19 19 19 19 19 19 18 17 17 16 16 15 15 15 14 12 13 13 13 13 15 16 15 14 13 13 13 13 13 13 14 13 12 13 13 13 13 13 13 14 14 14 15 15 14 15 17
27 26 28 28 28 28 27 27 26 27 28 27 27 27 27 28 28 29 28 27 26 25 25 24 23 22 21 20 19 18 17 16 16 15 15 15 16 17 19 19 19 19 19 19 18 18 17 16 15 15 15 15 14 12 13 14 14 14 15 15 14 13 13 13 12 12 12 13 13 13 12 12 13 12 12 12 13 13 13 14 14 14 14 14 16
26 26 28 28 27 27 27 27 27 28 28 28 28 26 26 26 27 28 27 26 25 25 24 23 23 21 20 19 18 17 17 16 16 15 15 15 15 15 17 18 18 18 19 18 18 18 17 17 16 15 15 15 14 12 14 15 15 15 14 14 14 13 13 13 12 11 12 12 12 12 12 11 11 11 10 11 12 13 12 13 13 14 14 13 15
25 26 27 27 27 27 28 28 28 28 28 28 27 26 26 25 26 26 26 25 25 24 23 23 22 20 19 18 18 17 16 16 15 15 15 15 14 14 15 16 17 17 17 18 18 18 18 17 16 15 15 15 13 14 15 15 15 14 13 13 14 14 14 12 11 11 11 11 10 11 11 11 11 10 10 11 11 11 12 12 13 14 13 12 13
24 26 26 26 26 28 29 28 28 28 28 28 27 26 25 25 25 25 25 24 24 23 22 22 20 19 19 18 17 16 15 15 15 15 15 15 14 13 14 15 16 16 16 16 17 18 18 17 15 15 15 15 14 15 15 14 13 13 13 13 14 14 13 12 11 11 10 10 10 10 11 11 10 10 10 11 11 11 11 11 12 12 13 12 12
23 25 26 25 26 29 29 28 29 29 29 28 27 26 24 24 23 23 23 22 22 21 21 20 20 19 18 17 16 15 15 14 15 15 16 16 14 14 15 15 16 16 15 15 16 17 18 17 15 15 15 15 15 15 14 13 12 12 12 11 12 12 12 12 12 11 9 9 9 9 10 10 9 9 10 10 11 11 11 11 11 12 13 12 11
22 25 24 24 25 28 29 28 30 30 29 28 27 26 24 24 23 22 21 21 21 21 21 19 19 18 17 16 15 15 14 14 15 15 15 16 15 15 15 16 16 16 14 13 15 16 17 16 15 15 15 15 15 14 13 12 11 11 10 9 10 10 10 11 11 9 8 8 9 9 9 9 8 9 9 9 10 11 11 11 10 11 12 11 10
23 24 23 23 25 27 28 28 29 30 29 28 27 27 25 24 23 22 20 20 20 20 19 18 17 17 16 15 14 14 14 14 14 14 14 15 15 15 14 14 15 15 14 13 13 14 16 15 14 14 14 14 13 12 12 12 12 11 9 8 8 7 8 9 9 8 8 8 8 9 8 8 8 9 10 9 10 10 10 9 8 10 10 10 9
23 23 22 24 25 27 28 27 28 28 28 28 28 27 26 24 22 20 19 19 19 19 17 17 17 16 15 14 14 14 14 14 13 14 14 14 14 14 13 13 14 14 14 13 12 12 14 14 14 14 13 13 12 11 10 11 11 10 8 8 7 6 7 7 7 7 8 7 8 8 8 8 8 9 10 9 9 10 8 8 9 10 9 9 8
22 21 22 24 25 26 27 28 28 28 27 27 28 27 25 24 21 20 20 19 18 18 17 17 17 16 15 14 13 13 14 14 14 13 13 13 13 12 12 12 13 14 14 12 11 11 13 13 13 13 14 13 12 11 10 9 9 8 8 9 9 8 7 7 7 7 7 7 7 8 8 8 8 9 9 9 9 9 8 7 9 9 7 8 7
20 20 20 23 24 25 26 27 28 29 27 24 26 27 25 23 21 21 19 17 16 17 17 17 16 15 15 14 13 13 13 14 14 13 13 13 12 11 11 12 12 13 12 11 11 12 13 13 13 13 13 14 13 11 9 8 7 6 7 9 10 9 8 7 6 7 7 6 7 7 7 7 9 10 9 7 8 9 8 7 8 7 7 7 7
18 20 20 21 23 25 26 27 28 28 27 24 25 26 24 21 20 20 17 15 16 16 16 16 15 15 14 13 12 12 12 13 14 13 12 12 11 11 10 10 11 10 10 9 10 12 12 12 12 12 12 12 13 11 10 8 7 7 8 10 11 10 9 8 7 7 6 6 6 6 7 7 9 10 8 7 7 9 8 7 7 6 6 7 8
17 20 21 22 22 23 24 25 27 28 27 26 25 24 23 22 20 18 16 15 15 16 15 15 15 15 13 12 12 12 12 12 12 12 12 12 11 11 10 9 9 9 8 8 9 11 10 10 10 10 10 10 11 12 11 9 8 8 10 10 11 10 9 8 6 6 7 6 6 6 6 7 9 9 8 7 7 8 7 6 6 6 6 7 7
17 18 18 19 17 16 21 25 27 28 28 27 25 24 23 22 20 18 16 15 16 16 15 15 15 15 13 12 11 11 12 11 11 11 11 11 11 10 10 9 8 8 8 7 9 10 10 10 9 8 7 8 9 11 12 11 8 8 11 11 10 9 8 7 6 6 7 6 6 6 6 8 9 8 7 7 7 7 6 6 5 5 6 6 4
16 16 15 16 15 14 20 24 26 28 28 28 27 25 23 22 20 19 16 15 17 16 16 16 15 14 13 12 11 11 11 11 10 10 10 9 9 9 9 8 8 9 8 8 9 10 10 10 9 8 7 7 7 9 12 13 10 8 10 11 9 9 8 6 5 5 6 5 6 5 6 9 9 7 6 6 6 6 6 6 6 5 5 5 2
15 16 15 15 16 16 18 20 20 24 29 29 28 26 23 22 21 19 17 17 17 17 16 16 15 14 13 12 11 11 11 10 10 9 9 8 8 8 8 8 8 8 8 8 9 10 9 9 8 7 6 6 6 9 12 13 11 8 9 10 9 8 7 6 5 5 5 5 6 5 7 10 8 6 5 5 5 5 6 6 6 5 4 4 2
15 15 16 16 15 14 15 16 17 21 29 29 27 26 23 22 21 19 18 17 17 16 16 16 15 14 13 13 12 12 11 11 10 9 8 8 8 8 8 8 8 8 8 7 7 8 8 8 7 6 6 6 6 8 11 12 12 9 9 10 9 8 7 6 5 4 4 4 5 5 7 9 8 6 5 5 5 4 5 5 5 4 3 3 2
15 14 14 14 12 12 13 16 19 21 27 26 24 25 24 23 22 19 17 16 17 16 16 16 16 15 14 13 13 12 11 11 11 10 9 9 8 8 7 7 7 7 7 6 6 7 8 7 6 6 6 6 6 7 10 12 12 10 9 9 9 8 7 5 4 3 3 3 4 5 6 8 7 5 4 4 4 5 4 3 4 3 2 2 2
13 14 12 10 9 10 13 17 20 21 24 24 23 23 24 24 21 19 18 16 17 16 16 17 17 16 14 13 12 12 11 11 10 9 9 9 8 8 8 7 7 6 6 6 6 6 7 6 7 7 6 6 5 6 9 11 11 10 8 8 8 8 7 5 4 3 3 3 3 4 5 7 6 5 4 4 3 4 4 4 3 2 2 3 2
14 15 10 7 8 8 12 19 21 21 23 24 22 21 21 22 19 17 17 17 17 17 17 17 17 15 13 12 11 12 11 11 10 9 9 8 8 8 7 7 6 6 6 5 5 6 6 5 6 7 7 6 5 5 6 8 10 10 7 6 7 8 7 6 4 3 2 2 2 3 4 6 6 4 4 3 3 3 3 4 3 1 2 2 2
17 15 8 6 7 10 15 20 20 18 20 22 22 21 20 21 19 16 16 17 16 16 17 17 16 14 12 11 10 10 11 11 10 10 9 8 8 7 6 7 6 6 5 4 4 5 5 5 6 7 6 6 6 5 5 7 9 8 6 5 6 7 7 6 5 3 1 1 1 1 3 5 6 4 3 3 3 2 2 4 3 1 0 0 1
18 14 9 6 8 12 15 18 19 18 18 20 21 18 17 18 19 18 17 16 16 16 17 16 15 14 13 11 10 10 10 10 9 9 9 8 8 7 6 6 6 5 4 4 3 3 4 4 5 5 5 5 5 5 5 6 7 6 4 3 4 6 7 5 4 3 1 0 1 0 2 4 6 4 3 3 3 2 2 3 3 2 0 0 0
20 14 12 10 10 12 11 12 16 17 14 14 18 17 15 16 18 18 18 17 16 16 16 15 15 14 13 11 10 9 9 8 7 7 8 8 8 7 6 5 5 5 4 4 3 3 3 4 4 4 5 5 5 5 5 5 6 5 3 3 3 5 6 5 5 4 2 1 2 1 1 3 5 4 2 2 2 2 2 2 3 2 1 1 1
19 15 18 17 14 13 8 5 9 13 10 8 11 12 13 15 16 17 17 17 16 15 15 14 14 14 13 11 10 9 7 6 6 6 7 7 6 5 5 6 5 5 4 4 3 3 3 3 4 4 4 5 5 5 5 5 6 5 3 3 4 5 5 4 5 5 3 1 2 1 1 3 5 5 3 1 1 2 3 2 2 2 1 1 1
19 17 20 21 19 18 13 7 8 13 11 9 9 8 11 14 14 13 15 16 15 15 14 14 14 13 13 11 10 8 7 6 5 4 5 5 5 3 4 6 7 6 5 5 4 4 4 4 5 5 5 5 4 5 5 6 6 5 3 3 4 4 3 3 4 4 3 1 2 2 1 2 4 4 3 1 0 1 2 3 2 2 2 1 0
22 19 19 21 22 21 17 12 12 15 13 14 14 10 10 13 11 11 14 13 13 15 14 14 14 12 12 11 10 8 6 5 4 3 3 3 3 3 3 5 7 7 6 5 4 5 5 6 6 6 6 5 5 6 7 7 7 5 4 4 3 3 3 4 3 4 2 2 2 2 1 1 3 3 2 1 0 1 1 2 2 2 2 2 1
23 22 23 25 24 22 21 18 16 17 17 17 17 13 12 11 9 10 13 11 11 15 14 14 13 11 11 10 9 8 6 5 4 3 3 3 3 2 3 5 6 7 6 5 5 5 6 7 7 8 7 6 7 9 10 10 8 6 5 5 3 2 3 3 2 5 3 2 3 3 1 1 1 2 2 1 1 2 1 0 2 2 2 2 2
22 22 28 30 27 25 24 21 19 19 18 17 17 16 13 10 9 9 10 10 12 13 13 13 12 11 10 10 10 9 7 5 5 4 4 4 4 3 3 4 6 7 7 6 6 5 6 7 8 8 7 6 7 10 11 11 9 6 4 5 4 3 2 2 1 3 5 3 2 3 3 2 2 2 2 2 2 3 3 1 2 2 1 2 2
19 21 25 28 28 27 24 22 22 20 19 18 17 16 14 10 9 9 10 12 12 10 10 11 11 10 9 10 10 8 8 8 8 6 4 3 3 3 4 5 7 9 8 8 8 5 5 7 8 8 7 6 7 8 9 9 8 6 5 4 4 3 2 2 3 2 1 3 3 2 2 2 1 2 3 4 4 4 4 3 2 2 1 1 2
18 21 22 26 28 25 23 23 23 22 21 19 16 14 14 11 9 10 12 13 11 9 8 7 7 7 7 8 7 6 9 10 9 6 4 4 4 4 5 5 8 10 9 9 8 6 5 5 7 8 7 6 6 7 8 7 7 7 6 5 4 3 1 1 1 2 1 1 3 4 3 2 2 2 2 3 4 5 5 5 4 3 2 2 2
20 24 23 27 28 23 23 23 24 24 21 17 14 12 13 13 12 12 12 11 9 7 5 4 5 5 5 6 4 4 8 9 7 7 6 6 5 5 6 5 7 9 9 9 9 9 7 5 5 7 7 6 6 6 7 8 7 7 7 6 5 4 3 2 1 1 0 1 2 4 4 4 3 4 3 3 4 5 5 6 5 4 4 3 3
24 28 25 28 29 26 25 25 25 24 20 16 13 11 11 11 12 11 11 9 6 3 1 1 2 2 2 2 2 3 6 7 7 7 7 6 5 6 6 5 7 9 10 11 10 9 7 6 6 6 7 7 6 5 6 7 8 6 6 6 5 5 4 3 3 3 3 2 2 2 3 6 7 7 6 5 5 5 6 7 6 6 5 5 5
27 29 27 28 30 29 24 23 26 23 19 17 14 12 10 9 9 9 9 6 2 1 1 1 1 1 1 2 3 4 5 6 6 6 6 6 6 6 5 5 7 8 8 9 8 6 6 9 11 8 8 8 7 6 7 7 7 6 6 6 6 5 4 3 2 2 3 3 2 2 1 4 6 8 8 7 7 7 8 9 8 8 7 7 7
25 27 27 27 29 26 17 15 21 22 20 19 15 12 10 9 9 8 6 4 2 1 1 1 1 1 2 2 3 3 5 6 6 6 6 7 6 6 5 5 8 8 7 7 6 5 5 8 11 10 9 7 7 7 8 8 6 6 6 6 6 5 3 2 1 1 2 3 2 1 1 2 3 5 7 8 8 7 8 9 8 8 8 8 8
24 25 25 25 24 21 13 13 20 22 21 19 16 13 11 10 10 8 6 4 3 2 1 2 2 2 2 2 3 4 5 6 6 7 7 7 7 6 5 6 8 9 7 6 5 5 5 6 9 11 7 5 5 6 7 7 6 5 5 5 4 3 2 3 2 2 3 3 3 2 1 2 3 5 5 7 8 8 8 9 9 8 9 10 10
23 24 23 23 21 18 15 15 20 22 22 21 19 17 14 12 11 9 7 6 6 5 4 5 6 5 5 5 7 7 6 6 6 7 8 7 7 8 8 8 9 8 7 6 6 5 6 6 8 11 8 4 4 5 5 6 6 5 4 3 3 3 4 4 4 5 5 4 3 3 2 1 3 5 5 5 5 6 7 8 8 8 8 10 11
20 23 23 22 21 20 18 16 19 22 23 23 22 21 18 15 12 10 10 10 8 6 6 7 8 9 9 10 10 9 7 6 6 7 8 8 9 9 8 8 7 6 5 6 6 6 7 8 8 10 8 7 6 5 5 7 7 6 4 3 3 3 3 3 4 6 6 4 4 3 4 4 4 4 3 4 4 4 5 5 5 6 6 7 8
19 22 23 23 23 23 21 18 19 21 22 24 23 21 18 16 13 11 12 12 9 6 7 9 10 11 11 10 10 10 8 7 6 6 8 8 8 8 7 6 5 5 5 6 7 8 8 7 8 8 8 8 6 6 7 7 6 5 4 3 3 2 3 4 5 6 7 6 5 4 4 3 2 3 3 4 5 5 5 4 4 4 5 6 6
21 24 25 25 25 23 20 18 19 20 21 21 20 18 16 14 13 13 13 12 10 7 9 11 12 12 12 12 11 10 8 7 8 9 10 9 8 8 7 6 6 5 6 6 7 8 8 7 7 7 7 7 6 6 7 6 4 4 4 3 2 2 3 5 6 9 9 8 7 5 5 3 1 2 3 4 5 6 6 6 5 5 5 6 5
21 23 24 25 25 23 18 16 18 19 19 18 16 15 15 14 13 14 12 11 10 10 11 13 13 14 14 14 13 11 9 8 9 10 11 11 10 9 8 6 6 6 6 6 6 7 7 7 8 9 8 7 6 6 7 7 5 5 3 1 1 2 2 4 7 10 11 11 11 9 7 6 4 3 2 3 4 5 5 5 6 5 4 5 5
22 25 26 25 23 20 17 17 18 18 18 17 16 16 16 16 15 14 12 11 11 10 12 13 13 14 14 13 12 10 9 8 8 9 10 11 10 9 8 6 6 6 6 6 7 7 7 7 8 9 9 9 8 7 7 7 7 7 4 2 1 1 2 6 7 7 10 12 11 10 10 10 9 8 8 7 6 4 5 5 5 5 4 4 4
14 10 9 10 13 14 17 21 21 20 20 18 17 18 18 18 17 16 14 13 11 10 11 11 11 11 12 11 10 8 7 6 6 7 8 9 8 7 7 6 6 5 5 5 6 7 7 7 8 9 8 8 9 8 7 6 6 7 7 4 3 2 4 6 5 5 8 10 11 12 13 14 14 14 14 13 11 10 10 10 9 7 7 7 6
19 29 26 15 13 15 19 25 25 22 21 20 19 19 18 18 17 15 14 13 12 11 11 10 9 9 9 9 9 8 8 7 6 6 7 7 6 7 6 5 5 5 5 5 6 7 7 8 8 9 8 7 7 7 7 8 6 5 5 4 3 5 7 6 4 5 7 7 11 15 17 18 20 19 17 16 16 17 16 16 14 13 12 12 11
28 26 20 15 17 22 23 23 24 23 22 21 20 19 18 18 17 14 13 13 12 13 12 10 8 8 9 9 9 9 8 7 6 6 6 6 5 5 4 4 5 6 7 7 7 7 7 7 7 7 7 6 6 6 7 9 8 7 5 4 4 6 7 5 5 6 6 6 8 12 17 22 24 23 20 19 20 21 20 19 17 16 17 17 16
13 13 17 17 17 22 22 19 19 21 22 22 21 19 18 17 16 14 14 13 12 13 13 10 9 7 7 8 8 8 8 6 6 6 7 6 4 3 3 4 5 7 8 9 8 7 6 6 6 6 7 7 5 5 7 8 9 9 7 6 6 7 8 7 6 6 7 6 6 7 11 16 20 20 19 19 19 20 20 19 17 16 17 18 17
13 17 20 18 8 4 6 10 14 17 20 22 22 20 18 17 15 14 13 13 13 13 12 11 10 8 7 7 6 6 6 6 6 5 6 5 3 3 4 6 7 8 9 9 8 7 7 6 6 7 8 8 6 6 7 8 8 9 8 9 9 9 8 7 7 7 6 6 7 8 9 10 12 13 15 17 17 17 17 18 17 16 16 16 16
17 19 23 23 13 12 10 5 6 12 16 19 21 21 20 18 15 12 10 10 11 12 12 11 10 9 8 8 6 5 5 6 6 5 5 4 3 4 6 8 8 9 9 8 8 8 9 9 8 8 8 8 8 8 8 8 9 10 10 9 8 7 7 6 6 6 7 8 8 8 9 10 11 11 12 14 15 16 16 17 17 16 16 16 15
Wind_Direction
168 164 164 168 162 159 156 149 147 143 142 142 145 142 139 138 142 145 145 147 145 144 141 139 138 139 138 138 138 137 135 134 134 131 129 127 125 126 128 129 128 129 128 127 124 123 122 121 120 118 116 115 114 114 117 116 115 115 112 110 109 108 111 113 112 111 109 105 102 98 95 92 92 95 93 92 91 91 92 83 75 74 71 72 71
163 163 165 168 163 160 157 151 148 145 143 142 144 143 143 140 142 145 145 146 144 141 139 139 137 137 137 138 138 136 136 136 136 131 128 125 125 125 125 128 128 127 126 126 124 124 125 124 122 120 120 117 116 116 120 120 120 119 116 114 113 110 108 113 116 111 108 107 104 101 99 94 92 94 93 92 91 89 89 79 76 77 71 69 67
156 161 165 168 164 161 157 153 150 147 145 143 143 143 145 143 142 143 144 144 142 140 137 137 136 137 138 138 138 137 137 137 136 132 129 125 123 121 121 124 125 124 122 124 124 126 126 126 124 122 121 119 118 117 120 123 123 121 120 119 118 117 115 114 115 113 108 107 103 98 97 95 92 94 94 92 91 88 84 78 78 78 74 72 68
156 160 165 168 164 161 159 155 151 149 147 144 143 142 144 145 143 142 142 142 140 139 137 137 137 138 140 140 139 139 138 136 134 131 130 125 121 118 118 121 123 122 122 123 124 127 128 128 127 126 125 123 122 121 126 125 123 122 122 121 120 125 127 122 120 121 117 115 107 98 95 94 93 94 93 91 90 88 85 83 81 78 79 78 72
157 159 164 166 163 162 160 156 153 150 148 145 143 143 143 144 144 144 143 141 139 138 138 138 139 141 142 141 140 139 137 135 133 132 130 126 123 120 118 120 123 124 124 124 125 128 129 128 128 128 127 127 124 126 132 127 123 124 123 121 121 124 127 129 128 125 121 118 107 100 99 99 95 94 92 92 93 89 87 83 80 79 79 76 74
156 159 163 165 162 162 160 157 154 151 149 147 145 144 143 144 145 145 143 139 139 140 140 141 141 142 141 141 140 138 137 136 135 134 133 131 130 126 123 121 121 121 122 125 128 129 129 129 130 131 129 129 127 130 133 127 123 123 122 121 121 121 125 132 129 124 120 111 100 98 101 101 99 97 96 96 95 90 88 85 83 80 79 77 76
156 158 163 166 163 162 161 157 154 152 150 148 146 144 143 143 144 144 142 140 141 142 142 142 141 141 141 141 140 139 139 139 139 138 137 136 135 134 131 125 121 119 118 121 126 129 130 130 131 132 132 131 131 135 133 128 126 120 118 119 121 121 127 131 126 124 115 103 97 100 100 101 103 102 98 97 97 94 91 89 87 83 83 80 77
156 159 163 166 165 163 162 159 156 153 150 148 146 144 144 142 143 144 144 144 144 144 144 143 141 141 141 142 141 141 141 141 142 141 139 136 135 136 133 128 124 121 118 117 119 127 130 129 131 132 133 134 136 139 134 131 129 122 119 120 120 122 128 128 124 119 107 101 100 100 101 103 104 102 100 102 101 98 95 91 88 85 85 81 78
158 160 163 165 166 165 163 160 157 154 150 148 146 146 145 144 144 144 146 146 146 146 146 144 143 143 143 144 144 143 142 143 143 143 141 136 135 134 131 129 127 124 120 117 116 124 130 130 131 132 133 135 135 137 136 136 132 126 122 118 119 122 126 126 122 115 103 101 100 100 104 105 102 100 102 106 107 104 99 91 89 86 84 85 83
160 162 163 164 167 168 166 162 158 154 150 148 148 148 147 148 147 146 147 147 148 147 148 147 146 146 147 148 147 145 144 143 143 143 143 138 137 138 136 135 131 126 121 118 118 124 130 132 130 131 134 136 138 141 142 143 137 131 124 117 119 119 121 122 120 114 105 103 99 102 110 109 102 101 105 108 109 107 99 96 99 92 85 87 83
160 162 162 164 168 169 168 165 159 154 151 149 149 150 150 151 150 148 147 146 147 147 148 148 148 149 150 151 149 147 147 145 144 144 145 142 143 145 139 136 132 127 124 120 121 126 129 130 130 134 137 138 141 144 148 148 142 138 132 123 122 117 119 120 118 114 109 108 103 105 111 105 100 105 110 109 109 105 101 106 107 94 88 90 85
161 161 162 163 168 171 170 166 159 155 152 150 150 152 152 152 150 147 147 146 146 146 147 148 149 150 151 152 151 151 149 147 144 144 145 144 145 145 138 134 134 130 126 122 122 126 130 131 134 140 143 143 144 144 148 151 147 145 145 135 129 125 123 120 120 120 114 115 112 110 109 100 102 112 116 114 110 108 107 109 99 90 92 93 86
160 161 164 164 169 172 169 164 159 156 154 153 153 153 152 150 147 146 148 147 147 148 148 150 151 151 154 155 155 154 151 148 146 145 145 145 144 141 138 136 137 133 127 123 122 125 132 137 139 142 146 148 149 148 149 149 149 152 153 146 144 144 132 124 125 125 119 120 119 115 112 106 108 112 118 117 114 113 109 104 97 95 96 94 85
158 163 166 166 170 170 167 164 161 158 156 156 155 151 150 147 144 149 149 146 148 149 149 151 153 154 156 157 157 154 152 151 147 145 143 144 143 141 143 142 142 137 130 125 125 130 134 139 140 143 150 153 154 155 152 147 151 152 146 149 153 149 139 130 130 129 125 124 122 120 113 112 118 116 117 121 122 118 110 107 105 101 96 94 88
158 163 166 167 169 167 165 164 162 160 157 159 157 150 148 147 149 152 146 143 148 149 150 152 154 155 155 155 155 151 150 150 147 143 141 140 141 141 144 145 144 135 128 127 134 139 137 141 146 149 154 156 157 159 158 150 147 143 142 152 152 146 140 133 132 133 131 128 125 124 116 118 129 127 122 124 127 123 114 110 109 106 96 91 87
157 161 164 167 169 168 165 161 161 161 160 161 157 150 150 153 154 151 143 144 151 151 152 153 153 152 151 150 148 147 147 146 145 142 140 139 139 140 142 141 136 128 126 128 138 143 139 143 151 152 154 157 159 159 158 152 143 142 147 150 148 145 138 133 134 135 137 134 129 127 122 124 127 128 131 129 130 129 122 112 110 110 100 90 87
155 162 166 167 169 169 162 158 160 163 161 157 154 154 157 159 157 153 147 148 153 153 153 154 154 150 146 145 144 144 143 142 141 140 139 140 140 140 139 135 128 127 128 125 133 142 139 139 143 146 153 157 157 155 152 148 144 147 152 149 147 145 136 132 132 135 142 139 136 131 125 131 129 131 139 134 132 132 126 119 111 107 101 93 93
152 159 162 163 169 170 160 158 161 163 161 156 157 163 163 161 161 156 149 150 156 156 156 158 154 150 147 145 145 142 139 137 135 136 138 138 140 139 137 135 131 131 132 124 125 133 134 131 126 123 138 152 155 154 148 144 144 151 155 152 148 145 138 134 130 136 145 140 137 132 131 143 140 138 141 136 135 131 128 123 109 105 104 101 105
146 149 151 160 171 175 167 163 163 161 159 160 162 167 166 165 164 157 154 158 161 160 159 160 156 152 151 149 146 141 137 134 132 133 136 138 138 135 135 136 137 138 134 124 120 125 128 126 120 111 118 138 154 154 146 141 141 150 159 158 155 148 144 140 136 139 144 146 143 135 139 144 141 140 141 140 139 131 127 121 116 112 108 108 78
139 140 146 161 170 170 165 163 166 158 156 163 165 168 169 167 167 162 163 164 163 163 162 161 158 157 157 157 153 148 143 139 136 134 134 137 135 130 131 136 141 143 137 126 122 124 128 128 122 111 105 117 144 152 145 138 136 147 161 166 167 159 157 155 150 145 146 156 147 143 147 141 139 142 139 141 140 131 125 124 127 119 111 113 40
136 139 148 159 162 159 154 158 164 152 156 166 166 167 169 170 172 170 167 165 163 164 164 164 162 163 166 166 162 156 152 149 145 142 141 136 133 130 128 133 139 144 140 132 128 124 127 131 127 114 100 99 124 145 144 135 134 148 163 171 176 176 175 167 157 151 154 159 150 156 156 143 141 145 142 145 143 137 134 127 129 124 118 111 47
135 138 145 152 152 148 142 149 155 150 157 166 166 168 171 175 178 174 169 165 165 167 166 169 171 172 174 173 170 165 161 158 154 152 149 142 139 139 135 134 135 139 141 137 136 128 124 131 130 120 109 99 109 134 142 136 132 145 161 171 178 181 183 181 172 165 164 160 163 172 162 148 144 148 151 152 150 146 144 120 119 139 138 88 83
123 130 132 137 140 144 134 132 143 152 160 163 166 172 173 176 180 178 173 168 169 172 171 176 180 179 180 180 176 174 172 166 162 158 155 153 154 154 148 138 133 132 134 137 141 135 130 135 132 122 116 104 99 122 139 139 133 137 157 171 180 186 190 196 192 181 180 166 178 186 169 154 143 149 161 155 152 151 150 133 124 150 134 99 116
127 134 127 127 137 141 125 124 139 156 163 163 165 171 173 174 179 181 176 173 175 175 177 183 186 186 186 187 185 184 180 173 171 168 163 166 168 167 157 148 143 135 130 132 141 145 140 136 130 123 121 110 103 112 128 141 139 138 154 172 185 191 193 203 209 207 199 176 201 201 175 158 141 151 168 159 159 151 146 142 140 149 119 109 140
135 141 131 120 128 123 124 133 143 154 162 163 165 173 176 175 179 181 177 178 179 178 182 187 189 193 192 193 195 192 185 180 183 180 174 177 181 182 168 156 151 141 135 132 137 154 152 140 130 126 124 115 112 117 124 145 146 141 148 171 196 199 195 202 216 228 222 195 245 215 180 162 148 160 171 163 167 155 139 136 141 159 328 303 192
133 152 152 117 103 110 129 141 145 155 165 165 169 175 173 177 184 185 187 187 183 183 188 191 193 198 200 202 202 195 191 189 193 188 180 181 187 193 184 164 153 147 146 144 144 160 167 161 143 130 125 116 115 121 132 154 156 145 140 151 193 199 192 199 221 244 265 302 317 283 179 166 155 164 169 169 178 170 151 135 150 174 270 170 182
140 153 151 135 121 122 138 147 148 159 166 169 173 173 168 180 193 193 196 194 188 189 191 194 197 201 206 209 207 203 199 196 198 190 182 183 187 194 195 179 160 157 154 153 156 159 172 173 156 139 127 119 115 120 130 158 163 148 137 121 135 175 185 204 232 253 284 352 353 18 149 160 161 165 157 177 202 197 188 163 165 179 198 187 201
142 141 151 156 153 148 157 156 151 158 162 176 178 173 172 185 198 199 199 195 193 194 194 197 202 205 208 211 214 213 206 201 203 194 184 182 182 185 194 193 178 171 166 161 159 154 163 163 157 144 125 114 109 113 126 157 164 149 152 131 121 148 175 210 239 262 286 346 16 21 133 148 155 162 150 164 229 220 210 210 194 187 213 236 229
145 142 154 160 160 163 176 178 161 160 166 189 194 194 189 193 199 197 199 199 199 200 200 202 204 206 208 211 216 218 218 216 215 206 188 174 170 165 178 190 186 182 177 166 154 150 154 145 142 135 116 103 96 106 129 161 167 154 161 155 141 159 189 227 248 267 289 11 45 37 119 155 151 160 151 120 226 237 216 219 229 213 221 240 234
153 149 153 159 162 168 181 187 174 172 184 193 198 213 209 204 201 199 203 203 204 206 206 208 208 209 211 213 218 223 226 222 222 217 191 161 161 168 168 183 186 183 179 168 152 148 151 141 137 128 109 95 85 105 133 161 171 166 180 191 175 187 233 248 262 276 310 52 56 46 58 180 156 157 152 113 270 235 195 227 243 233 241 249 233
159 157 161 164 164 170 184 194 189 187 195 193 196 210 216 212 205 206 209 207 209 210 212 215 214 215 216 219 226 231 232 229 238 223 178 159 175 198 184 186 192 183 174 163 150 150 149 143 140 129 113 105 101 118 137 154 165 167 184 193 182 193 241 246 274 279 279 36 40 47 24 298 212 176 185 214 295 261 225 208 216 223 256 263 257
164 167 169 166 164 171 183 192 193 192 193 191 195 203 212 215 212 213 212 213 218 216 219 222 224 227 227 229 231 235 240 236 233 205 178 184 193 215 212 201 206 196 178 161 157 160 154 147 142 129 123 125 119 125 136 142 145 146 160 172 173 176 192 179 187 256 256 279 339 28 30 360 319 305 279 264 283 266 256 261 192 193 229 258 264
170 177 175 169 167 168 176 186 191 193 191 191 195 201 207 210 212 215 217 224 229 232 232 228 232 236 238 239 230 228 239 240 233 213 191 215 214 215 225 213 207 200 185 168 161 162 165 153 142 137 143 146 130 127 132 130 126 128 140 145 152 154 140 137 128 139 219 275 262 276 350 16 331 320 310 288 285 270 260 268 260 230 223 242 260
175 182 179 173 171 167 172 184 191 192 189 190 193 199 205 209 216 220 222 228 237 249 256 251 251 251 259 263 251 235 240 244 240 226 214 228 221 213 225 214 201 197 186 177 169 167 175 159 147 155 166 165 151 139 135 135 130 131 137 136 147 157 156 176 117 122 139 277 223 242 286 302 284 280 294 296 287 272 258 261 271 270 261 256 252
180 180 178 176 174 168 173 183 189 190 188 187 191 201 210 217 227 230 228 233 244 258 273 284 284 279 278 277 269 230 233 243 233 219 218 215 207 212 220 208 195 194 187 186 187 181 178 168 165 174 175 173 167 151 137 141 144 138 133 129 137 144 150 163 71 62 296 275 231 249 259 247 251 258 269 299 294 274 259 256 263 268 271 276 265
181 178 179 180 177 176 179 186 192 191 187 187 195 207 210 215 225 232 230 233 239 252 315 313 300 279 264 254 239 193 214 239 230 215 215 208 205 213 215 201 190 193 193 193 196 192 184 175 175 182 187 185 178 160 141 142 148 143 138 138 138 131 121 108 83 57 34 19 323 300 263 242 248 258 267 291 303 290 274 263 257 261 266 275 281
181 179 182 184 182 183 187 192 195 191 186 190 199 202 193 193 205 212 211 208 192 71 11 307 315 216 180 193 206 189 197 223 228 215 209 207 204 207 208 189 182 188 192 191 191 194 184 172 171 185 203 189 174 162 146 142 150 146 144 152 151 142 128 106 81 53 36 29 16 4 305 250 255 268 274 284 294 292 288 281 274 274 274 274 279
186 183 186 189 188 189 189 187 188 184 185 191 191 184 174 173 180 181 175 157 122 74 335 319 4 146 169 191 186 174 185 196 205 198 196 201 192 197 199 175 171 174 175 179 186 196 193 179 172 185 207 190 167 164 156 150 155 153 150 154 151 144 142 129 93 52 41 25 18 4 285 270 281 294 284 280 288 297 305 303 299 298 293 288 281
193 190 192 196 196 199 193 176 176 175 178 180 174 170 167 167 166 160 151 135 126 124 90 63 61 92 129 154 125 130 162 171 175 176 179 188 182 185 182 164 166 163 158 162 175 191 202 190 158 155 183 198 172 166 161 152 148 146 150 155 147 130 119 115 106 75 58 42 37 26 298 278 308 325 306 287 290 300 313 310 304 308 307 306 302
195 195 196 202 208 210 201 184 175 169 168 168 164 167 167 163 160 154 145 135 129 118 93 86 85 88 97 101 102 112 137 146 150 156 162 172 170 170 169 166 164 155 150 156 167 184 192 180 141 138 160 176 151 154 155 146 134 127 137 152 130 101 92 94 87 74 67 58 53 43 22 360 342 339 328 314 306 307 317 316 307 312 316 318 322
193 197 197 202 208 207 202 189 175 167 164 163 164 169 170 166 161 155 146 134 123 104 90 91 94 98 100 97 97 101 114 130 141 147 154 159 152 152 158 160 157 151 149 147 156 174 182 173 144 136 153 153 141 147 149 144 140 136 139 143 118 94 84 83 75 70 70 64 53 38 32 27 4 352 349 348 353 344 336 331 324 328 336 335 333
190 195 192 196 201 203 200 187 175 170 167 166 166 168 170 169 165 158 148 132 117 103 101 101 104 107 106 101 99 101 106 117 128 138 148 150 144 145 151 154 163 167 153 137 141 156 168 174 162 146 145 147 148 155 158 158 161 164 164 155 143 119 86 86 77 66 72 76 64 44 40 36 336 324 346 352 353 349 339 331 336 345 349 353 349
192 196 194 194 198 200 197 187 178 172 170 169 165 166 169 171 168 160 149 131 119 115 112 112 111 110 107 103 101 103 107 110 115 124 130 131 131 139 143 145 158 159 143 133 137 151 162 173 180 170 154 149 152 168 183 189 181 170 173 174 165 145 108 93 75 65 73 79 75 69 66 74 54 307 322 336 331 320 318 319 332 350 350 355 6
193 195 194 193 195 196 193 187 180 173 174 172 166 169 172 171 168 160 149 134 126 123 118 117 115 109 104 100 97 95 96 100 107 113 115 113 113 122 129 130 134 135 134 137 143 158 169 175 180 175 165 158 159 176 196 200 189 171 166 133 126 173 135 105 83 72 79 81 78 79 78 83 81 60 22 360 337 320 325 328 331 348 352 350 1
197 198 197 193 188 188 191 189 181 176 176 175 175 179 174 169 163 152 144 133 129 130 123 119 116 111 104 98 92 86 83 87 96 104 108 108 108 114 120 120 121 128 136 145 152 159 168 176 178 174 171 166 163 168 181 193 193 187 178 133 135 196 134 127 117 87 83 78 72 71 69 75 80 76 71 60 49 38 35 28 12 10 7 357 360
199 171 142 141 147 160 183 186 181 179 181 182 185 183 176 170 163 154 148 138 132 133 128 123 119 113 106 98 92 87 84 84 92 105 110 108 109 112 113 115 117 129 145 149 151 154 158 165 165 164 165 160 157 157 160 172 182 187 190 190 193 177 141 148 153 119 97 75 64 67 69 75 81 77 71 67 69 72 68 59 51 43 35 30 26
68 66 68 89 139 165 183 185 181 183 185 186 186 182 175 172 169 163 156 147 139 137 134 129 124 115 108 103 100 101 98 98 104 116 121 115 112 115 114 114 115 126 145 147 146 148 151 156 156 156 157 154 155 155 156 159 155 163 178 182 171 155 148 156 166 149 127 85 68 73 73 77 82 79 72 70 73 78 77 69 62 59 57 53 50
61 66 81 116 162 182 187 184 182 184 185 183 182 181 179 176 173 163 153 150 144 141 139 132 123 115 107 105 108 109 105 103 107 121 135 128 109 110 117 117 115 121 129 134 139 142 147 152 153 154 155 155 160 158 158 161 154 145 143 140 138 142 144 145 152 151 142 118 91 84 78 76 77 76 73 71 72 76 77 71 64 64 65 63 61
79 100 113 130 167 186 183 178 179 181 183 183 181 182 186 184 175 160 152 151 146 141 139 132 126 119 107 105 108 111 111 112 114 123 137 132 108 98 114 126 125 122 124 127 130 132 139 148 153 157 155 155 157 154 153 155 152 147 144 139 128 120 116 112 118 123 124 129 125 113 99 83 73 68 68 70 68 69 71 68 63 61 63 62 61
127 130 129 135 134 84 122 161 177 179 181 182 182 183 187 187 178 166 157 152 149 145 140 135 133 128 122 119 115 114 117 123 125 125 131 131 120 110 121 135 136 127 125 128 128 127 131 139 149 156 158 154 146 142 143 141 144 148 146 139 131 125 121 115 115 117 118 125 129 131 125 104 85 70 64 65 65 63 64 63 61 58 58 57 57
136 135 130 133 113 53 51 96 164 183 185 183 183 184 185 186 181 174 166 155 152 152 147 143 139 135 134 132 130 127 124 128 128 125 125 118 110 115 125 134 136 130 127 124 120 118 119 124 130 137 146 149 140 134 134 131 134 142 144 140 136 133 133 130 132 135 134 135 136 135 126 113 103 90 74 67 65 63 61 59 57 56 56 56 58